Weather History for KPRO - January, 2013

Change the Weather History Date:

Tuesday, January 8, 2013

  Actual Average (KAMW) Record (KAMW)
Temperature  
Mean Temperature 28 °F 20 °F  
Max Temperature 39 °F 28 °F - ()
Min Temperature 17 °F 11 °F - ()
Degree Days  
Heating Degree Days 37 46  
Month to date heating degree days 362  
Since 1 July heating degree days 3116  
Cooling Degree Days 0 0  
Month to date cooling degree days 0  
Year to date cooling degree days 0  
Moisture  
Dew Point 26 °F    
Average Humidity 90    
Maximum Humidity 99    
Minimum Humidity 76    
Precipitation  
Precipitation 0.00 in 0.01 in - ()
Month to date precipitation 0.11  
Sea Level Pressure  
Sea Level Pressure 29.94 in    
Wind  
Wind Speed 6 mph (South)    
Max Wind Speed 16 mph    
Max Gust Speed -    
Visibility 9 miles    
Events Fog    
T = Trace of Precipitation, MM = Missing Value Source: NWS Daily Summary

Daily Weather History Graph

Daily Weather History Graph

Search for Another Location

Airport or City:

Trip Planner

Search our weather history database for the weather conditions in past years. The results will help you decide how hot, cold, wet, or windy it might be!

Date:

Astronomy

Jan. 08, 2013 Rise Set
Actual Time 7:43 AM CST 5:03 PM CST
Civil Twilight 7:12 AM CST 5:34 PM CST
Nautical Twilight 6:37 AM CST 6:09 PM CST
Astronomical Twilight 6:04 AM CST 6:42 PM CST
Moon 4:17 AM CST (1/8) 2:06 PM CST (1/8)
Length of Visible Light 10h 21m
Length of Day
9h 19m
Waning Crescent, 13% of the Moon is Illuminated
Jan 8
Waning Crescent
Jan 11
New
Jan 18
First Quarter
Jan 26
Full
Feb 3
Last Quarter

Hourly Weather History & Observations

Time (CST) Temp. Windchill Dew Point Humidity Pressure Visibility Wind Dir Wind Speed Gust Speed Precip Events Conditions
12:15 AM 24.3 °F - 23.5 °F 97% 29.99 in 5.0 mi Calm Calm - N/A   Clear
12:55 AM 23.9 °F - 23.5 °F 99% 29.99 in 2.5 mi Calm Calm - N/A   Clear
1:15 AM 24.4 °F - 24.1 °F 99% 29.99 in 2.0 mi Calm Calm - N/A   Clear
1:35 AM 22.8 °F - 22.1 °F 97% 29.99 in 2.5 mi Calm Calm - N/A   Clear
1:55 AM 22.1 °F 17.4 °F 21.7 °F 99% 29.98 in 0.2 mi SE 3.5 mph - N/A Fog Light Freezing Fog
2:15 AM 20.7 °F 15.8 °F 19.8 °F 96% 29.98 in 0.2 mi ESE 3.5 mph - N/A Fog Light Freezing Fog
2:35 AM 20.3 °F 15.4 °F 19.4 °F 96% 29.98 in 1.5 mi ESE 3.5 mph - N/A   Scattered Clouds
2:55 AM 20.7 °F 15.8 °F 19.9 °F 97% 29.98 in 4.0 mi SE 3.5 mph - N/A   Clear
3:15 AM 19.6 °F 10.6 °F 18.7 °F 96% 29.97 in 1.8 mi SSE 6.9 mph - N/A   Mist
3:35 AM 18.9 °F 13.7 °F 17.8 °F 96% 29.97 in 7.0 mi SSE 3.5 mph - N/A   Clear
3:55 AM 21.2 °F 13.6 °F 20.3 °F 96% 29.96 in 10.0 mi SSE 5.8 mph - N/A   Clear
4:15 AM 18.3 °F 8.2 °F 16.9 °F 94% 29.95 in 7.0 mi SSE 8.1 mph - N/A   Clear
4:35 AM 18.5 °F 7.5 °F 17.6 °F 96% 29.95 in 10.0 mi SSE 9.2 mph - N/A   Clear
4:55 AM 19.2 °F 9.3 °F 18.3 °F 96% 29.94 in 10.0 mi SE 8.1 mph - N/A   Clear
5:15 AM 20.5 °F 15.6 °F 19.8 °F 97% 29.94 in 10.0 mi East 3.5 mph - N/A   Clear
5:35 AM 20.3 °F 12.5 °F 19.2 °F 96% 29.93 in 10.0 mi ESE 5.8 mph - N/A   Clear
6:15 AM 18.5 °F 9.3 °F 17.4 °F 96% 29.93 in 10.0 mi East 6.9 mph - N/A   Clear
6:35 AM 18.9 °F 9.8 °F 17.8 °F 96% 29.93 in 7.0 mi ESE 6.9 mph - N/A   Clear
6:55 AM 17.8 °F 9.6 °F 16.3 °F 94% 29.94 in 10.0 mi SE 5.8 mph - N/A   Clear
7:15 AM 18.7 °F 9.5 °F 17.8 °F 96% 29.94 in 7.0 mi SE 6.9 mph - N/A   Clear
7:35 AM 17.8 °F 7.5 °F 16.7 °F 96% 29.94 in 7.0 mi SE 8.1 mph - N/A   Clear
7:55 AM 17.4 °F 7.1 °F 16.0 °F 94% 29.93 in 7.0 mi SE 8.1 mph - N/A   Clear
8:15 AM 18.1 °F 6.3 °F 17.2 °F 96% 29.94 in 7.0 mi SSE 10.4 mph - N/A   Clear
8:35 AM 20.3 °F 9.0 °F 19.2 °F 96% 29.94 in 10.0 mi SSE 10.4 mph - N/A   Clear
8:55 AM 20.7 °F 9.5 °F 19.8 °F 96% 29.94 in 10.0 mi SSE 10.4 mph - N/A   Clear
9:15 AM 22.1 °F 11.3 °F 21.4 °F 97% 29.94 in 10.0 mi SSE 10.4 mph - N/A   Clear
9:35 AM 25.2 °F 15.1 °F 24.6 °F 98% 29.94 in 10.0 mi SSE 10.4 mph - N/A   Clear
9:55 AM 27.3 °F 18.4 °F 26.8 °F 98% 29.94 in 10.0 mi SSE 9.2 mph - N/A   Clear
10:15 AM 28.2 °F 19.5 °F 27.3 °F 96% 29.93 in 10.0 mi SSE 9.2 mph - N/A   Clear
10:35 AM 30.0 °F 21.1 °F 27.5 °F 90% 29.93 in 10.0 mi South 10.4 mph - N/A   Clear
10:55 AM 30.6 °F 21.8 °F 27.5 °F 88% 29.92 in 10.0 mi SSE 10.4 mph - N/A   Clear
11:15 AM 32.0 °F 24.2 °F 28.6 °F 87% 29.92 in 10.0 mi South 9.2 mph - N/A   Clear
11:35 AM 33.4 °F 25.4 °F 29.3 °F 85% 29.90 in 10.0 mi SSE 10.4 mph - N/A   Clear
11:55 AM 33.8 °F 25.3 °F 30.2 °F 87% 29.88 in 10.0 mi SSE 11.5 mph - N/A   Clear
12:15 PM 35.1 °F 29.3 °F 31.1 °F 85% 29.86 in 10.0 mi SSE 6.9 mph - N/A   Clear
12:35 PM 36.9 °F 29.6 °F 32.0 °F 83% 29.85 in 10.0 mi South 10.4 mph - N/A   Clear
12:55 PM 36.5 °F 27.4 °F 32.0 °F 84% 29.83 in 10.0 mi South 15.0 mph - N/A   Clear
1:15 PM 37.0 °F 28.5 °F 32.0 °F 82% 29.83 in 10.0 mi South 13.8 mph - N/A   Clear
1:55 PM 37.9 °F 31.5 °F 32.2 °F 80% 29.83 in 10.0 mi South 9.2 mph - N/A   Clear
2:15 PM 37.6 °F 31.6 °F 32.2 °F 81% 29.84 in 10.0 mi SSW 8.1 mph - N/A   Clear
2:35 PM 37.4 °F 31.4 °F 32.4 °F 82% 29.84 in 10.0 mi South 8.1 mph - N/A   Clear
2:55 PM 37.0 °F 31.0 °F 32.4 °F 83% 29.85 in 10.0 mi SSW 8.1 mph - N/A   Clear
3:15 PM 37.2 °F 34.7 °F 32.4 °F 83% 29.86 in 10.0 mi WSW 3.5 mph - N/A   Clear
3:35 PM 37.2 °F 30.6 °F 32.9 °F 84% 29.86 in 10.0 mi SW 9.2 mph - N/A   Clear
3:55 PM 39.4 °F 32.7 °F 32.5 °F 76% 29.87 in 10.0 mi SW 10.4 mph - N/A   Clear
4:15 PM 39.0 °F 32.3 °F 32.2 °F 76% 29.86 in 10.0 mi SW 10.4 mph - N/A   Clear
4:35 PM 35.2 °F 28.1 °F 32.0 °F 88% 29.87 in 10.0 mi WSW 9.2 mph - N/A   Clear
4:55 PM 34.0 °F 27.2 °F 31.6 °F 91% 29.89 in 10.0 mi WSW 8.1 mph - N/A   Clear
5:15 PM 34.3 °F 28.4 °F 31.6 °F 90% 29.89 in 10.0 mi WSW 6.9 mph - N/A   Clear
5:35 PM 34.5 °F 26.2 °F 31.3 °F 88% 29.90 in 10.0 mi WSW 11.5 mph - N/A   Clear
5:55 PM 34.7 °F 26.9 °F 31.1 °F 87% 29.91 in 10.0 mi West 10.4 mph - N/A   Clear
6:15 PM 34.2 °F 26.2 °F 30.9 °F 88% 29.91 in 10.0 mi WSW 10.4 mph - N/A   Clear
6:35 PM 34.7 °F 26.9 °F 31.1 °F 87% 29.92 in 10.0 mi WSW 10.4 mph - N/A   Clear
6:55 PM 35.1 °F 26.9 °F 31.3 °F 86% 29.93 in 10.0 mi WSW 11.5 mph - N/A   Clear
7:15 PM 35.6 °F 28.0 °F 31.8 °F 86% 29.94 in 10.0 mi WSW 10.4 mph - N/A   Mostly Cloudy
7:35 PM 35.6 °F 28.0 °F 31.6 °F 85% 29.96 in 10.0 mi West 10.4 mph - N/A   Overcast
7:55 PM 35.2 °F 27.6 °F 31.5 °F 86% 29.97 in 10.0 mi West 10.4 mph - N/A   Overcast
8:15 PM 35.6 °F 28.0 °F 31.1 °F 84% 29.99 in 10.0 mi WSW 10.4 mph - N/A   Scattered Clouds
8:35 PM 34.7 °F 28.1 °F 31.1 °F 87% 29.99 in 10.0 mi WSW 8.1 mph - N/A   Clear
8:55 PM 33.8 °F 25.3 °F 30.2 °F 87% 30.00 in 10.0 mi West 11.5 mph - N/A   Clear
9:35 PM 33.3 °F 22.8 °F 30.0 °F 88% 30.02 in 10.0 mi WSW 16.1 mph - N/A   Clear
9:55 PM 33.6 °F 23.3 °F 30.4 °F 88% 30.04 in 10.0 mi West 16.1 mph - N/A   Clear
10:15 PM 33.1 °F 23.0 °F 30.2 °F 89% 30.04 in 10.0 mi West 15.0 mph - N/A   Clear
10:35 PM 32.5 °F 22.3 °F 29.8 °F 90% 30.05 in 10.0 mi West 15.0 mph - N/A   Clear
10:55 PM 32.0 °F 22.1 °F 29.3 °F 90% 30.06 in 10.0 mi West 13.8 mph - N/A   Clear
11:55 PM 31.5 °F 22.3 °F 28.6 °F 89% 30.07 in 10.0 mi West 11.5 mph - N/A   Clear